Dayton, OH

9:54 PM EST on February 24, 2017 (GMT -0500)
Wright-Patterson Air Force Base

Weather History for KFFO - November, 2012

Change the Weather History Date:

Tuesday, November 13, 2012

  Actual Average Record
Temperature  
Mean Temperature 32 °F -  
Max Temperature 39 °F 50 °F 70 °F (2010)
Min Temperature 24 °F 33 °F 20 °F (2013)
Degree Days  
Heating Degree Days 33    
Moisture  
Dew Point 23 °F    
Average Humidity 72    
Maximum Humidity 90    
Minimum Humidity 50    
Precipitation  
Precipitation 0.00 in - - ()
Sea Level Pressure  
Sea Level Pressure 30.49 in    
Wind  
Wind Speed 5 mph (WSW)    
Max Wind Speed 8 mph    
Max Gust Speed -    
Visibility 10 miles    
Events      
Averages and records for this station are not official NWS values.
T = Trace of Precipitation, MM = Missing Value Source: NWS Daily Summary

Daily Weather History Graph

Daily Weather History Graph

Search for Another Location

Airport or City:

Trip Planner

Search our weather history database for the weather conditions in past years. The results will help you decide how hot, cold, wet, or windy it might be!

Date:

Astronomy

Nov. 13, 2012 Rise Set
Actual Time 7:19 AM EST 5:21 PM EST
Civil Twilight 6:50 AM EST 5:50 PM EST
Nautical Twilight 6:17 AM EST 6:22 PM EST
Astronomical Twilight 5:45 AM EST 6:54 PM EST
Moon 6:56 AM EST (11/13) 5:13 PM EST (11/13)
Length of Visible Light 10h 59m
Length of Day
10h 02m
Waning Crescent, 0% of the Moon is Illuminated
Nov 13
Waning Crescent
Nov 13
New
Nov 20
First Quarter
Nov 28
Full
Dec 6
Last Quarter

Hourly Weather History & Observations

Time (EST) Temp. Windchill Dew Point Humidity Pressure Visibility Wind Dir Wind Speed Gust Speed Precip Events Conditions
12:55 AM 29.5 °F 22.5 °F 24.1 °F 80% 30.41 in 10.0 mi South 6.9 mph - N/A   Scattered Clouds
1:55 AM 27.5 °F 21.1 °F 22.6 °F 82% 30.41 in 10.0 mi South 5.8 mph - N/A   Partly Cloudy
2:55 AM 26.8 °F 20.2 °F 22.3 °F 83% 30.43 in 10.0 mi South 5.8 mph - N/A   Clear
3:55 AM 27.0 °F - 23.0 °F 85% 30.43 in 10.0 mi Calm Calm - N/A   Clear
4:55 AM 26.6 °F 21.2 °F 24.1 °F 90% 30.43 in 10.0 mi South 4.6 mph - N/A   Clear
5:55 AM 25.0 °F 19.3 °F 22.1 °F 89% 30.45 in 10.0 mi South 4.6 mph - N/A   Clear
6:55 AM 26.1 °F 21.9 °F 22.5 °F 86% 30.46 in 10.0 mi SSE 3.5 mph - N/A   Clear
7:55 AM 26.8 °F 22.8 °F 22.6 °F 84% 30.49 in 10.0 mi SE 3.5 mph - N/A   Clear
8:55 AM 30.7 °F 24.9 °F 26.2 °F 83% 30.50 in 10.0 mi SW 5.8 mph - N/A   Clear
9:55 AM 34.5 °F 27.9 °F 25.3 °F 69% 30.51 in 10.0 mi West 8.1 mph - N/A   Clear
10:55 AM 36.5 °F 30.3 °F 25.3 °F 64% 30.51 in 10.0 mi NW 8.1 mph - N/A   Partly Cloudy
11:29 AM 37.4 °F 31.4 °F 24.8 °F 60% 30.51 in 10.0 mi WNW 8.1 mph - N/A   Partly Cloudy
11:55 AM 38.1 °F 34.6 °F 25.0 °F 59% 30.51 in 10.0 mi Variable 4.6 mph - N/A   Scattered Clouds
12:55 PM 38.5 °F 33.4 °F 22.8 °F 53% 30.49 in 10.0 mi Variable 6.9 mph - N/A   Scattered Clouds
1:55 PM 39.2 °F 34.2 °F 21.9 °F 50% 30.48 in 10.0 mi West 6.9 mph - N/A   Scattered Clouds
2:55 PM 39.7 °F 35.6 °F 22.3 °F 50% 30.48 in 10.0 mi NNW 5.8 mph - N/A   Mostly Cloudy
3:55 PM 39.2 °F 34.2 °F 23.9 °F 54% 30.49 in 10.0 mi NW 6.9 mph - N/A   Scattered Clouds
4:55 PM 37.2 °F 31.9 °F 22.1 °F 54% 30.50 in 10.0 mi NW 6.9 mph - N/A   Partly Cloudy
5:55 PM 35.1 °F 31.0 °F 21.7 °F 58% 30.51 in 10.0 mi NW 4.6 mph - N/A   Clear
6:55 PM 32.9 °F 29.8 °F 23.0 °F 67% 30.52 in 10.0 mi NNW 3.5 mph - N/A   Clear
7:55 PM 31.3 °F - 22.6 °F 70% 30.53 in 10.0 mi Calm Calm - N/A   Clear
8:55 PM 29.3 °F - 22.3 °F 75% 30.54 in 10.0 mi Calm Calm - N/A   Clear
9:55 PM 27.5 °F - 23.0 °F 83% 30.55 in 10.0 mi Calm Calm - N/A   Clear
10:55 PM 27.1 °F - 22.6 °F 83% 30.55 in 10.0 mi Calm Calm - N/A   Clear
11:55 PM 24.8 °F - 21.4 °F 87% 30.55 in 10.0 mi Calm Calm - N/A   Clear